Regional Weather Roundup
Issued by NWS

Home | Current Version | Previous Version | Text Only | Print | Product List | Glossary Off
Versions: 1 2 3 4 5 6 7 8 9 10 11 12 13 14 15 16 17 18 19 20 21 22 23 24 25 26 27 28

000
ASUS45 KCYS 220610
RWRWY

WYOMING REGIONAL WEATHER ROUNDUP
NATIONAL WEATHER SERVICE CHEYENNE WY
1200 AM MDT SAT JUL 22 2017

NOTE:  "FAIR" INDICATES FEW OR NO CLOUDS BELOW 12,000 FEET
WITH NO SIGNIFICANT WEATHER AND/OR OBSTRUCTIONS TO VISIBILITY.

WYZ001-220700-
YELLOWSTONE NATIONAL PARK

CITY           SKY/WX    TMP DP  RH WIND       PRES   REMARKS
LK YELLOWSTONE   N/A     47  36  65 W3        30.38R
6HR MIN TEMP:  46; 6HR MAX TEMP:  73;

W YELLOWSTONE  NOT AVBL

$$
WYZ002>013-054>058-071-098>099-220700-
NORTHERN WYOMING

CITY           SKY/WX    TMP DP  RH WIND       PRES   REMARKS
JACKSON        FAIR      52  37  58 N6        30.26S
CODY           FAIR      65  41  41 CALM      30.15R
GREYBULL       FAIR      80  33  18 NW13      29.99S
6HR MIN TEMP:  77; 6HR MAX TEMP:  93;

WORLAND        FAIR      73  37  27 CALM      30.02R
6HR MIN TEMP:  69; 6HR MAX TEMP:  93;

SHERIDAN       FAIR      64  45  49 CALM      30.04S
6HR MIN TEMP:  61; 6HR MAX TEMP:  90;

BUFFALO        FAIR      65  39  38 SW6       30.12R
6HR MIN TEMP:  65; 6HR MAX TEMP:  86;

GILLETTE       FAIR      59  38  45 SW5       30.06R
6HR MIN TEMP:  58; 6HR MAX TEMP:  90;

HULETT         FAIR      61  43  51 S9        30.06S
NEWCASTLE      FAIR      72  36  26 N8        30.04S

$$
WYZ014>020-022>026-101>103-220700-
CENTRAL WYOMING

CITY           SKY/WX    TMP DP  RH WIND       PRES   REMARKS
BIG PINEY      FAIR      49  38  65 CALM      30.30S
6HR MIN TEMP:  49; 6HR MAX TEMP:  82;

PINEDALE       FAIR      52  37  58 NW6       30.32R
DUBOIS         FAIR      54  27  35 W8        30.29F
LANDER         FAIR      71  31  22 SW10      30.15R
6HR MIN TEMP:  70; 6HR MAX TEMP:  89;

RIVERTON       FAIR      66  31  27 NW16      30.13R
6HR MIN TEMP:  66; 6HR MAX TEMP:  91;

CASPER         FAIR      72  48  42 S18       30.11R
6HR MIN TEMP:  72; 6HR MAX TEMP:  91;

DOUGLAS        FAIR      69  50  50 W3        30.10R
6HR MIN TEMP:  67; 6HR MAX TEMP:  88;


$$
WYZ021-027>030-104>119-220700-
SOUTHERN WYOMING

CITY           SKY/WX    TMP DP  RH WIND       PRES   REMARKS
EVANSTON       FAIR      66  39  37 N6        30.29R
6HR MIN TEMP:  65; 6HR MAX TEMP:  86;

KEMMERER         N/A     61  32  33 NW13      30.30S
FORT BRIDGER   FAIR      69  33  26 NE5       30.31R
ROCK SPRINGS   FAIR      65  49  56 SE16      30.27R
6HR MIN TEMP:  65; 6HR MAX TEMP:  82;

RAWLINS        FAIR      59  49  69 CALM      30.27S
6HR MIN TEMP:  59; 6HR MAX TEMP:  76;

SARATOGA       FAIR      59  50  72 SE6G16    30.30R
LARAMIE        FAIR      55  50  83 S7        30.29F
6HR MIN TEMP:  54; 6HR MAX TEMP:  68; 6HR PCP:  0.06;

CHEYENNE       MOCLDY    63  53  70 SW15      30.21S
6HR MIN TEMP:  60; 6HR MAX TEMP:  77; 6HR PCP:  0.07;

TORRINGTON     FAIR      73  52  47 E5        30.06R
6HR MIN TEMP:  71; 6HR MAX TEMP:  94; 6HR PCP: TRACE;

PINE BLUFFS    FAIR      66  52  59 S10       30.18S

$$




USA.gov is the U.S. government's official web portal to all federal, state and local government web resources and services.